When you browse on this site, cookies collect data to enhance your experience and personalize the content and advertising you see.
Visit our Privacy Policy to learn more. By continuing to use the site, you agree to this use of cookies and data.
  • In Austria
  • List of Countries
  • For 7 days
  • Water Temperature
  • Weather Map
  • News
  • Weather Widgets
  • user-avatar
    Login

    Hourly Weather Bafoussam

    Today, 8 December, Sunday

    Time Temperature Precipitation Wind Pressure Humidity
    00:00 +18°C° 0 mm 1 mps 643 mmHg 76%
    01:00 +18°C° 0 mm 1 mps 643 mmHg 77%
    02:00 +18°C° 0 mm 1 mps 643 mmHg 75%
    03:00 +18°C° 0 mm 1 mps 643 mmHg 73%
    04:00 +16°C° 0 mm 1 mps 642 mmHg 72%
    05:00 +18°C° 0 mm 1 mps 643 mmHg 69%
    06:00 +18°C° 0 mm 1 mps 643 mmHg 66%
    07:00 +19°C° 0 mm 1 mps 644 mmHg 64%
    08:00 +21°C° 0 mm 1 mps 645 mmHg 54%
    09:00 +24°C° 0 mm 1 mps 646 mmHg 44%
    10:00 +27°C° 0 mm 2 mps 646 mmHg 34%
    11:00 +28°C° 0 mm 2 mps 646 mmHg 32%
    12:00 +29°C° 0 mm 2 mps 645 mmHg 29%
    13:00 +30°C° 0 mm 2 mps 645 mmHg 27%
    14:00 +29°C° 0 mm 2 mps 644 mmHg 27%
    15:00 +29°C° 0 mm 2 mps 644 mmHg 27%
    16:00 +29°C° 0 mm 2 mps 643 mmHg 28%
    17:00 +26°C° 0 mm 1 mps 643 mmHg 35%
    18:00 +24°C° 0 mm 1 mps 643 mmHg 43%
    19:00 +21°C° 0 mm 1 mps 642 mmHg 51%
    20:00 +21°C° 0 mm 1 mps 643 mmHg 55%
    21:00 +20°C° 0 mm 1 mps 643 mmHg 59%
    22:00 +19°C° 0 mm 1 mps 643 mmHg 62%
    23:00 +19°C° 0 mm 1 mps 643 mmHg 63%

    Tomorrow, 9 December, Monday

    Time Temperature Precipitation Wind Pressure Humidity
    00:00 +19°C° 0 mm 1 mps 643 mmHg 64%
    01:00 +18°C° 0 mm 1 mps 643 mmHg 64%
    02:00 +18°C° 0 mm 1 mps 643 mmHg 62%
    03:00 +18°C° 0 mm 1 mps 642 mmHg 60%
    04:00 +16°C° 0 mm 1 mps 642 mmHg 58%
    05:00 +16°C° 0 mm 1 mps 643 mmHg 57%
    06:00 +18°C° 0 mm 1 mps 643 mmHg 56%
    07:00 +18°C° 0 mm 1 mps 644 mmHg 54%
    08:00 +21°C° 0 mm 1 mps 645 mmHg 46%
    09:00 +25°C° 0 mm 1 mps 646 mmHg 37%
    10:00 +28°C° 0 mm 1 mps 647 mmHg 28%
    11:00 +29°C° 0 mm 1 mps 646 mmHg 27%
    12:00 +30°C° 0 mm 1 mps 646 mmHg 25%
    13:00 +31°C° 0 mm 1 mps 646 mmHg 23%
    14:00 +30°C° 0 mm 1 mps 645 mmHg 25%
    15:00 +30°C° 0 mm 1 mps 644 mmHg 26%
    16:00 +29°C° 0 mm 1 mps 644 mmHg 27%
    17:00 +27°C° 0 mm 1 mps 643 mmHg 38%
    18:00 +24°C° 0 mm 1 mps 643 mmHg 49%
    19:00 +21°C° 0 mm 1 mps 642 mmHg 60%
    20:00 +20°C° 0 mm 1 mps 643 mmHg 63%
    21:00 +20°C° 0 mm 1 mps 643 mmHg 67%
    22:00 +19°C° 0 mm 1 mps 643 mmHg 70%
    23:00 +19°C° 0 mm 1 mps 643 mmHg 72%

    Day after tomorrow, 10 December, Tuesday

    Time Temperature Precipitation Wind Pressure Humidity
    00:00 +18°C° 0 mm 1 mps 643 mmHg 73%
    01:00 +18°C° 0 mm 1 mps 643 mmHg 75%
    02:00 +18°C° 0 mm 1 mps 642 mmHg 73%
    03:00 +16°C° 0 mm 1 mps 642 mmHg 72%
    04:00 +16°C° 0 mm 1 mps 642 mmHg 70%
    05:00 +16°C° 0 mm 1 mps 642 mmHg 67%
    06:00 +16°C° 0 mm 1 mps 643 mmHg 65%
    07:00 +15°C° 0 mm 0 mps 643 mmHg 62%
    08:00 +19°C° 0 mm 0 mps 644 mmHg 52%
    09:00 +22°C° 0 mm 0 mps 645 mmHg 42%
    10:00 +26°C° 0 mm 0 mps 647 mmHg 32%
    11:00 +29°C° 0 mm 1 mps 646 mmHg 29%
    12:00 +30°C° 0 mm 1 mps 646 mmHg 27%
    13:00 +31°C° 0 mm 1 mps 646 mmHg 25%
    14:00 +30°C° 0 mm 1 mps 645 mmHg 27%
    15:00 +29°C° 0 mm 1 mps 644 mmHg 29%
    16:00 +28°C° 0 mm 1 mps 643 mmHg 32%
    17:00 +26°C° 0 mm 1 mps 643 mmHg 46%
    18:00 +23°C° 0 mm 2 mps 642 mmHg 61%
    19:00 +19°C° 0 mm 2 mps 642 mmHg 75%
    20:00 +20°C° 0 mm 1 mps 642 mmHg 78%
    21:00 +19°C° 0 mm 1 mps 643 mmHg 81%
    22:00 +19°C° 0 mm 1 mps 643 mmHg 84%
    23:00 +18°C° 0 mm 1 mps 643 mmHg 83%

    11 December, Wednesday

    Time Temperature Precipitation Wind Pressure Humidity
    00:00 +18°C° 0 mm 1 mps 643 mmHg 82%
    01:00 +18°C° 0 mm 1 mps 642 mmHg 82%
    02:00 +16°C° 0 mm 1 mps 642 mmHg 79%
    03:00 +16°C° 0 mm 1 mps 642 mmHg 76%
    04:00 +16°C° 0 mm 1 mps 642 mmHg 73%
    05:00 +16°C° 0 mm 1 mps 642 mmHg 70%
    06:00 +16°C° 0 mm 1 mps 642 mmHg 67%
    07:00 +15°C° 0 mm 0 mps 643 mmHg 64%
    08:00 +19°C° 0 mm 0 mps 644 mmHg 54%
    09:00 +22°C° 0 mm 0 mps 645 mmHg 44%
    10:00 +26°C° 0 mm 0 mps 647 mmHg 33%
    11:00 +28°C° 0 mm 1 mps 646 mmHg 31%
    12:00 +29°C° 0 mm 1 mps 646 mmHg 28%
    13:00 +30°C° 0 mm 1 mps 646 mmHg 25%
    14:00 +30°C° 0 mm 1 mps 645 mmHg 27%
    15:00 +29°C° 0 mm 1 mps 644 mmHg 29%
    16:00 +28°C° 0 mm 2 mps 644 mmHg 31%
    17:00 +26°C° 0 mm 1 mps 643 mmHg 43%
    18:00 +23°C° 0 mm 1 mps 643 mmHg 56%
    19:00 +21°C° 0 mm 1 mps 642 mmHg 69%
    20:00 +20°C° 0 mm 1 mps 643 mmHg 74%
    21:00 +19°C° 0 mm 1 mps 643 mmHg 80%
    22:00 +19°C° 0 mm 1 mps 643 mmHg 85%
    23:00 +19°C° 0 mm 1 mps 643 mmHg 86%

    12 December, Thursday

    Time Temperature Precipitation Wind Pressure Humidity
    00:00 +18°C° 0 mm 1 mps 643 mmHg 86%
    01:00 +18°C° 0 mm 1 mps 643 mmHg 86%
    02:00 +18°C° 0 mm 1 mps 643 mmHg 82%
    03:00 +18°C° 0 mm 1 mps 642 mmHg 78%
    04:00 +16°C° 0 mm 1 mps 642 mmHg 74%
    05:00 +16°C° 0 mm 1 mps 642 mmHg 70%
    06:00 +16°C° 0 mm 0 mps 643 mmHg 66%
    07:00 +16°C° 0 mm 0 mps 643 mmHg 62%
    08:00 +21°C° 0 mm 1 mps 644 mmHg 51%
    09:00 +24°C° 0 mm 1 mps 646 mmHg 41%
    10:00 +28°C° 0 mm 1 mps 647 mmHg 31%
    11:00 +28°C° 0 mm 1 mps 646 mmHg 29%
    12:00 +29°C° 0 mm 2 mps 646 mmHg 27%
    13:00 +30°C° 0 mm 2 mps 645 mmHg 25%
    14:00 +30°C° 0 mm 2 mps 645 mmHg 26%
    15:00 +29°C° 0 mm 2 mps 644 mmHg 27%
    16:00 +29°C° 0 mm 2 mps 643 mmHg 28%
    17:00 +26°C° 0.1 mm 2 mps 643 mmHg 39%
    18:00 +23°C° 0.1 mm 1 mps 643 mmHg 50%
    19:00 +21°C° 0.1 mm 1 mps 642 mmHg 61%
    20:00 +20°C° 0 mm 1 mps 643 mmHg 65%
    21:00 +20°C° 0 mm 1 mps 643 mmHg 69%
    22:00 +19°C° 0 mm 1 mps 643 mmHg 73%
    23:00 +19°C° 0 mm 1 mps 643 mmHg 71%

    13 December, Friday

    Time Temperature Precipitation Wind Pressure Humidity
    00:00 +18°C° 0 mm 1 mps 643 mmHg 68%
    01:00 +18°C° 0 mm 1 mps 643 mmHg 66%
    02:00 +18°C° 0 mm 1 mps 643 mmHg 63%
    03:00 +16°C° 0 mm 1 mps 642 mmHg 61%
    04:00 +15°C° 0 mm 0 mps 642 mmHg 58%
    05:00 +16°C° 0 mm 1 mps 642 mmHg 54%
    06:00 +16°C° 0 mm 1 mps 643 mmHg 51%
    07:00 +16°C° 0 mm 1 mps 643 mmHg 47%
    08:00 +21°C° 0 mm 1 mps 644 mmHg 40%
    09:00 +24°C° 0 mm 1 mps 646 mmHg 34%
    10:00 +27°C° 0 mm 1 mps 647 mmHg 27%
    11:00 +28°C° 0 mm 1 mps 646 mmHg 26%
    12:00 +29°C° 0 mm 1 mps 646 mmHg 24%
    13:00 +30°C° 0 mm 2 mps 646 mmHg 22%
    14:00 +30°C° 0 mm 1 mps 645 mmHg 23%
    15:00 +30°C° 0 mm 1 mps 644 mmHg 24%
    16:00 +29°C° 0 mm 1 mps 644 mmHg 25%
    17:00 +26°C° 0 mm 1 mps 643 mmHg 34%
    18:00 +24°C° 0 mm 1 mps 643 mmHg 44%
    19:00 +21°C° 0 mm 1 mps 642 mmHg 53%
    20:00 +20°C° 0 mm 1 mps 643 mmHg 57%
    21:00 +20°C° 0 mm 1 mps 643 mmHg 61%
    22:00 +19°C° 0 mm 1 mps 644 mmHg 65%
    23:00 +19°C° 0 mm 1 mps 643 mmHg 65%
    Show more